GW3407 Weather Reports


Display with metric or nautical units.
time (UTC)temp
F
wind
direction
speed
MPH
gust
MPH
rain 1hr
in
rain 24hr
in
rain mn
in
humidity
%
barometer
mb
20260502170120 55 338 2.0 7.0 0.00 0.00 0.00 50 1015.4
20260502164107 53 319 3.0 6.0 0.00 0.00 0.00 52 1015.8
20260502163603 53 270 1.0 5.0 0.00 0.00 0.00 53 1015.6
20260502163059 54 289 6.0 8.0 0.00 0.00 0.00 54 1015.7
20260502162556 53 315 6.0 14.0 0.00 0.00 0.00 53 1015.8
20260502162054 53 259 11.0 13.0 0.00 0.00 0.00 54 1015.9
20260502161550 55 279 2.0 8.0 0.00 0.00 0.00 52 1015.8
20260502161048 56 261 3.0 8.0 0.00 0.00 0.00 49 1015.8
20260502160546 54 307 2.0 6.0 0.00 0.00 0.00 54 1016.0
20260502151959 54 115 2.0 6.0 0.00 0.00 0.00 57 1016.1
20260502151455 55 286 2.0 3.0 0.00 0.00 0.00 58 1015.8
20260502150953 55 253 4.0 5.0 0.00 0.00 0.00 52 1016.0
20260502150450 55 82 3.0 4.0 0.00 0.00 0.00 60 1016.0
20260502130336 46 108 3.0 3.0 0.00 0.00 0.00 95 1016.3
20260502123318 41 90 3.0 4.0 0.00 0.00 0.00 99 1016.1
20260502122815 41 61 4.0 5.0 0.00 0.00 0.00 99 1016.1
20260502122310 41 191 0.0 2.0 0.00 0.00 0.00 99 1016.1
20260502121809 41 90 0.0 2.0 0.00 0.00 0.00 99 1016.1
20260502121306 39 105 3.0 3.0 0.00 0.00 0.00 99 1016.1
20260502120803 39 103 0.0 3.0 0.00 0.00 0.00 99 1016.2
20260502120300 38 190 0.0 2.0 0.00 0.00 0.00 99 1016.2
20260502115757 35 262 0.0 1.0 0.00 0.00 0.00 99 1016.2
20260502115254 35 90 0.0 3.0 0.00 0.00 0.00 99 1016.1
20260502114750 35 110 0.0 3.0 0.00 0.00 0.00 99 1016.3
20260502114247 34 162 1.0 3.0 0.00 0.00 0.00 99 1016.2
20260502113744 34 82 0.0 3.0 0.00 0.00 0.00 99 1016.3
20260502113242 34 109 0.0 2.0 0.00 0.00 0.00 99 1016.1
20260502112740 34 82 1.0 3.0 0.00 0.00 0.00 99 1016.1
20260502112237 33 0 0.0 3.0 0.00 0.00 0.00 99 1016.0
20260502111734 33 16 0.0 2.0 0.00 0.00 0.00 99 1016.0
20260502111232 33 194 0.0 2.0 0.00 0.00 0.00 99 1016.0
20260502110729 33 206 1.0 2.0 0.00 0.00 0.00 99 1016.0
20260502110226 33 245 0.0 2.0 0.00 0.00 0.00 99 1016.0
20260502105724 32 277 0.0 2.0 0.00 0.00 0.00 99 1016.0
20260502105220 32 168 0.0 2.0 0.00 0.00 0.00 99 1016.0
20260502104718 32 117 1.0 3.0 0.00 0.00 0.00 99 1016.1
20260502104216 32 206 1.0 1.0 0.00 0.00 0.00 99 1016.0
20260502103713 32 294 0.0 3.0 0.00 0.00 0.00 99 1016.0
20260502103211 32 90 0.0 3.0 0.00 0.00 0.00 99 1016.1
20260502102707 32 180 0.0 2.0 0.00 0.00 0.00 99 1016.2
20260502102204 32 213 0.0 3.0 0.00 0.00 0.00 99 1016.3
20260502101702 32 166 0.0 2.0 0.00 0.00 0.00 99 1016.2
20260502101200 32 127 2.0 2.0 0.00 0.00 0.00 99 1016.2
20260502100658 32 180 0.0 3.0 0.00 0.00 0.00 99 1016.1
20260502100156 32 209 1.0 2.0 0.00 0.00 0.00 99 1016.2
20260502091130 33 112 0.0 2.0 0.00 0.00 0.00 99 1015.9
20260502090627 33 128 0.0 3.0 0.00 0.00 0.00 99 1016.1
20260502090124 33 126 1.0 3.0 0.00 0.00 0.00 99 1016.1
20260502071522 33 195 0.0 2.0 0.00 0.00 0.00 99 1015.9
20260502071020 34 203 0.0 2.0 0.00 0.00 0.00 99 1015.7
20260502070518 34 131 0.0 3.0 0.00 0.00 0.00 99 1015.8
20260502070016 34 123 0.0 3.0 0.00 0.00 0.00 99 1015.7
20260502065514 34 145 1.0 3.0 0.00 0.00 0.00 99 1015.8
20260502065011 34 180 0.0 3.0 0.00 0.00 0.00 99 1015.9
20260502064510 34 147 0.0 2.0 0.00 0.00 0.00 99 1016.0
20260502064006 33 90 1.0 3.0 0.00 0.00 0.00 99 1016.1
20260502063504 34 188 2.0 2.0 0.00 0.00 0.00 99 1016.1
20260502063002 34 120 0.0 3.0 0.00 0.00 0.00 99 1016.1
20260502062458 34 115 0.0 2.0 0.00 0.00 0.00 99 1016.3
20260502061957 35 233 0.0 3.0 0.00 0.00 0.00 99 1016.2
20260502061454 35 131 1.0 2.0 0.00 0.00 0.00 99 1016.2
20260502060950 35 254 0.0 2.0 0.00 0.00 0.00 99 1016.2
20260502060446 35 227 0.0 3.0 0.00 0.00 0.00 99 1016.5
20260502055943 35 270 1.0 2.0 0.00 0.00 0.00 99 1016.5
20260502055440 35 195 2.0 3.0 0.00 0.00 0.00 99 1016.5
20260502054935 35 167 0.0 3.0 0.00 0.00 0.00 99 1016.2
20260502054432 35 180 0.0 3.0 0.00 0.00 0.00 99 1016.3
20260502053929 35 139 2.0 3.0 0.00 0.00 0.00 99 1016.4
20260502053426 35 157 0.0 3.0 0.00 0.00 0.00 99 1016.4
20260502052924 35 170 0.0 2.0 0.00 0.00 0.00 99 1016.7
20260502052422 35 152 2.0 3.0 0.00 0.00 0.00 99 1016.5
20260502051920 35 180 0.0 3.0 0.00 0.00 0.00 99 1016.4
20260502051418 35 163 0.0 2.0 0.00 0.00 0.00 99 1016.3
20260502050914 35 168 0.0 2.0 0.00 0.00 0.00 99 1016.3
20260502050411 35 157 0.0 3.0 0.00 0.00 0.00 99 1016.5
20260502045908 35 195 0.0 2.0 0.00 0.00 0.00 99 1016.3
20260502045405 36 123 1.0 2.0 0.00 0.00 0.00 98 1016.5
20260502044902 36 176 2.0 3.0 0.00 0.00 0.00 98 1016.6
20260502044357 36 206 2.0 3.0 0.00 0.00 0.00 98 1016.7
20260502043855 37 132 2.0 3.0 0.00 0.00 0.00 98 1016.6
20260502043353 36 144 3.0 3.0 0.00 0.00 0.00 98 1016.5
20260502042852 37 165 2.0 3.0 0.00 0.00 0.00 98 1016.5
20260502042350 37 180 0.0 4.0 0.00 0.00 0.00 98 1016.4
20260502041847 37 143 0.0 3.0 0.00 0.00 0.00 98 1016.6
20260502041344 37 166 0.0 2.0 0.00 0.00 0.00 98 1016.4
20260502040841 37 162 1.0 3.0 0.00 0.00 0.00 98 1016.5
20260502040338 37 138 3.0 3.0 0.00 0.00 0.00 98 1016.5
20260502035834 37 157 1.0 3.0 0.00 0.00 0.00 97 1016.5
20260502035331 37 180 0.0 2.0 0.00 0.00 0.00 97 1016.2
20260502034828 37 154 2.0 3.0 0.00 0.00 0.00 97 1016.4
20260502034326 37 138 0.0 3.0 0.00 0.00 0.00 97 1016.4
20260502033824 38 146 0.0 3.0 0.00 0.00 0.00 96 1016.4
20260502033322 38 97 1.0 3.0 0.00 0.00 0.00 96 1016.4
20260502032818 38 174 1.0 2.0 0.00 0.00 0.00 96 1016.3
20260502032314 38 196 2.0 3.0 0.00 0.00 0.00 96 1016.3
20260502031812 38 195 0.0 3.0 0.00 0.00 0.00 96 1016.4
20260502031310 38 188 0.0 2.0 0.00 0.00 0.00 95 1016.4
20260502030809 39 144 0.0 2.0 0.00 0.00 0.00 94 1016.4
20260502030306 39 174 1.0 3.0 0.00 0.00 0.00 94 1016.5
20260502025803 39 180 2.0 3.0 0.00 0.00 0.00 94 1016.6
20260502025301 40 197 0.0 3.0 0.00 0.00 0.00 94 1016.4
20260502024759 40 151 2.0 2.0 0.00 0.00 0.00 94 1016.5
20260502024256 40 201 0.0 3.0 0.00 0.00 0.00 93 1016.5
20260502023754 40 129 0.0 3.0 0.00 0.00 0.00 93 1016.3
20260502023252 40 180 1.0 2.0 0.00 0.00 0.00 92 1016.2
20260502022749 41 225 0.0 2.0 0.00 0.00 0.00 91 1016.1
20260502022245 41 162 2.0 3.0 0.00 0.00 0.00 91 1016.1
20260502021742 41 154 0.0 3.0 0.00 0.00 0.00 90 1016.0
20260502021240 42 185 0.0 3.0 0.00 0.00 0.00 89 1015.7
20260502020736 41 135 3.0 3.0 0.00 0.00 0.00 88 1015.7
20260502020234 42 112 2.0 3.0 0.00 0.00 0.00 87 1015.7
20260502015732 43 220 0.0 2.0 0.00 0.00 0.00 86 1015.5
20260502015228 42 214 0.0 3.0 0.00 0.00 0.00 88 1015.5
20260502014726 43 253 0.0 2.0 0.00 0.00 0.00 85 1015.4
20260502014222 44 239 2.0 3.0 0.00 0.00 0.00 82 1015.5
20260502013718 44 228 2.0 4.0 0.00 0.00 0.00 82 1015.3
20260502013214 44 200 0.0 3.0 0.00 0.00 0.00 82 1015.3
20260502012711 46 263 0.0 2.0 0.00 0.00 0.00 78 1015.4
20260502012209 46 257 0.0 3.0 0.00 0.00 0.00 76 1015.2
20260502011705 46 270 0.0 3.0 0.00 0.00 0.00 75 1015.2
20260502011201 47 175 0.0 2.0 0.00 0.00 0.00 73 1015.0
20260502010700 48 6 0.0 3.0 0.00 0.00 0.00 72 1015.1
20260502010155 48 60 0.0 4.0 0.00 0.00 0.00 71 1014.8
20260502005653 48 200 1.0 1.0 0.00 0.00 0.00 73 1015.0
20260502005150 48 270 0.0 7.0 0.00 0.00 0.00 71 1014.9
20260502004646 49 236 3.0 6.0 0.00 0.00 0.00 70 1014.8
20260502004143 49 264 0.0 2.0 0.00 0.00 0.00 72 1014.5
20260502003641 49 10 2.0 4.0 0.00 0.00 0.00 71 1014.4
20260502003138 49 5 2.0 4.0 0.00 0.00 0.00 71 1014.7
20260502002634 50 0 1.0 3.0 0.00 0.00 0.00 72 1014.3
20260502002131 50 262 0.0 2.0 0.00 0.00 0.00 70 1014.3
20260502001629 50 273 3.0 4.0 0.00 0.00 0.00 69 1014.2
20260502001126 51 24 3.0 9.0 0.00 0.00 0.00 69 1014.2
20260502000624 51 273 4.0 7.0 0.00 0.00 0.00 67 1014.0
20260502000121 51 290 4.0 7.0 0.00 0.00 0.00 68 1013.7
20260501235617 52 320 2.0 3.0 0.00 0.00 0.00 70 1013.5
20260501235114 52 243 3.0 5.0 0.00 0.00 0.00 69 1013.1
20260501234609 52 285 8.0 8.0 0.00 0.00 0.00 68 1013.4
20260501234107 53 301 4.0 5.0 0.00 0.00 0.00 70 1013.0
20260501233605 53 286 1.0 3.0 0.00 0.00 0.00 71 1012.9
20260501233102 53 313 3.0 3.0 0.00 0.00 0.00 70 1012.7
20260501232557 54 246 6.0 6.0 0.00 0.00 0.00 72 1012.5
20260501232055 54 0 0.0 5.0 0.00 0.00 0.00 71 1012.8
20260501231553 55 270 0.0 4.0 0.00 0.00 0.00 70 1012.7
20260501231051 54 71 0.0 5.0 0.00 0.00 0.00 69 1012.7
20260501230549 54 25 3.0 8.0 0.00 0.00 0.00 70 1012.7
20260501230047 54 226 6.0 6.0 0.00 0.00 0.00 71 1012.7
20260501225544 54 270 2.0 3.0 0.00 0.00 0.00 72 1012.4
20260501225040 54 275 2.0 4.0 0.00 0.00 0.00 72 1012.6
20260501224538 54 274 3.0 7.0 0.00 0.00 0.00 70 1012.3
20260501224035 54 263 0.0 8.0 0.00 0.00 0.00 72 1012.7
20260501223531 55 305 2.0 4.0 0.00 0.00 0.00 75 1012.6
20260501223027 55 331 2.0 4.0 0.00 0.00 0.00 74 1012.4
20260501222524 55 270 0.0 4.0 0.00 0.00 0.00 75 1012.5
20260501222021 54 239 4.0 11.0 0.00 0.00 0.00 74 1012.3
20260501221517 55 277 3.0 4.0 0.00 0.00 0.00 73 1012.4
20260501221015 55 243 4.0 4.0 0.00 0.00 0.00 72 1012.3
20260501220513 55 0 1.0 3.0 0.00 0.00 0.00 74 1012.5
20260501220009 56 235 4.0 7.0 0.00 0.00 0.00 72 1012.2
20260501215505 55 275 2.0 3.0 0.00 0.00 0.00 75 1012.3
20260501215001 54 270 0.0 3.0 0.00 0.00 0.00 74 1012.5
20260501214456 54 20 0.0 2.0 0.00 0.00 0.00 75 1012.5
20260501213952 54 251 1.0 3.0 0.00 0.00 0.00 74 1012.4
20260501213449 54 353 0.0 3.0 0.00 0.00 0.00 74 1012.3
20260501212944 53 280 2.0 4.0 0.00 0.00 0.00 73 1012.3
20260501212441 53 270 5.0 7.0 0.00 0.00 0.00 73 1012.3
20260501211938 54 6 3.0 3.0 0.00 0.00 0.00 73 1012.0
20260501211436 53 270 2.0 6.0 0.00 0.00 0.00 72 1012.1
20260501210933 54 304 3.0 4.0 0.00 0.00 0.00 70 1012.0
20260501210430 55 213 0.0 3.0 0.00 0.00 0.00 73 1011.8
20260501205926 55 248 6.0 9.0 0.00 0.00 0.00 70 1011.9
20260501205423 55 291 3.0 7.0 0.00 0.00 0.00 71 1011.9
20260501204920 55 277 0.0 4.0 0.00 0.00 0.00 73 1012.0
20260501204416 54 289 4.0 8.0 0.00 0.00 0.00 72 1011.8
20260501203912 54 265 2.0 8.0 0.00 0.00 0.00 73 1012.1
20260501203410 54 283 2.0 5.0 0.00 0.00 0.00 72 1012.2
20260501202907 55 298 3.0 11.0 0.00 0.00 0.00 73 1012.1
20260501202404 55 74 5.0 7.0 0.00 0.00 0.00 73 1012.2
20260501201900 55 264 6.0 7.0 0.00 0.00 0.00 73 1012.1
20260501201357 56 334 3.0 14.0 0.00 0.00 0.00 73 1012.1
20260501200854 57 349 4.0 6.0 0.00 0.00 0.00 73 1012.2
20260501200351 57 296 3.0 8.0 0.00 0.00 0.00 74 1012.0
20260501195849 58 308 8.0 8.0 0.00 0.00 0.00 74 1012.0
20260501195344 59 139 3.0 5.0 0.00 0.00 0.00 74 1011.8
20260501194841 59 301 3.0 3.0 0.00 0.00 0.00 73 1011.4
20260501194337 59 19 2.0 3.0 0.00 0.00 0.00 78 1011.5
20260501193833 57 114 1.0 3.0 0.00 0.00 0.00 79 1011.6
20260501193332 56 352 2.0 3.0 0.00 0.00 0.00 80 1011.5
20260501192829 57 346 1.0 3.0 0.00 0.00 0.00 80 1011.4
20260501192326 57 20 0.0 3.0 0.00 0.00 0.00 79 1011.5
20260501191823 56 260 0.0 4.0 0.00 0.00 0.00 78 1011.7
20260501191320 55 282 1.0 6.0 0.00 0.00 0.00 78 1011.7
20260501190817 55 323 0.0 6.0 0.02 0.00 0.00 79 1011.8
20260501190313 55 319 2.0 8.0 0.02 0.00 0.00 77 1011.4
20260501185808 58 347 3.0 5.0 0.00 0.00 0.00 69 1011.6
20260501185306 59 324 3.0 3.0 0.00 0.00 0.00 65 1011.4
20260501184800 59 280 4.0 4.0 0.00 0.00 0.00 59 1011.2
20260501184256 60 283 2.0 3.0 0.00 0.00 0.00 59 1010.8
20260501183752 60 266 3.0 6.0 0.00 0.00 0.00 58 1011.0
20260501183249 60 205 3.0 5.0 0.00 0.00 0.00 57 1010.9
20260501182745 61 311 2.0 7.0 0.00 0.00 0.00 55 1010.9
20260501182242 61 199 4.0 7.0 0.00 0.00 0.00 54 1010.7
20260501181739 61 317 4.0 7.0 0.00 0.00 0.00 56 1010.6
20260501181237 62 279 3.0 9.0 0.00 0.00 0.00 53 1011.0
20260501180735 63 310 3.0 7.0 0.00 0.00 0.00 54 1010.9
20260501180230 63 270 3.0 11.0 0.00 0.00 0.00 54 1010.7
20260501175727 63 262 0.0 3.0 0.00 0.00 0.00 52 1010.8
20260501175224 62 240 10.0 11.0 0.00 0.00 0.00 52 1010.9
20260501174720 62 228 2.0 12.0 0.00 0.00 0.00 51 1011.0
20260501174218 63 305 3.0 9.0 0.00 0.00 0.00 55 1010.8
20260501173716 63 289 5.0 7.0 0.00 0.00 0.00 55 1010.9
20260501173213 62 330 3.0 9.0 0.00 0.00 0.00 51 1011.0
20260501172709 63 256 3.0 9.0 0.00 0.00 0.00 48 1010.9
20260501172203 64 266 6.0 7.0 0.00 0.00 0.00 50 1011.0